• In Czech Republic
  • List of Countries
  • For 7 days
  • Water Temperature
  • Satellite Maps
  • Weather Map
  • Weather Widgets
  • user-avatar
    Login

    Hourly Weather Almendralejo

    Today, 20 September, Thursday

    Time Temperature Precipitation Wind Pressure Humidity
    00:00 +26°C° 0 mm 1 mps 734 mmHg 38%
    01:00 +26°C° 0 mm 1 mps 734 mmHg 39%
    02:00 +25°C° 0 mm 1 mps 734 mmHg 40%
    03:00 +25°C° 0 mm 1 mps 734 mmHg 40%
    04:00 +25°C° 0 mm 1 mps 734 mmHg 41%
    05:00 +24°C° 0 mm 1 mps 734 mmHg 42%
    06:00 +24°C° 0 mm 1 mps 734 mmHg 44%
    07:00 +26°C° 0 mm 1 mps 734 mmHg 40%
    08:00 +28°C° 0 mm 1 mps 734 mmHg 37%
    09:00 +30°C° 0 mm 1 mps 735 mmHg 34%
    10:00 +31°C° 0 mm 1 mps 734 mmHg 32%
    11:00 +33°C° 0 mm 1 mps 734 mmHg 30%
    12:00 +34°C° 0 mm 1 mps 734 mmHg 28%
    13:00 +34°C° 0 mm 1 mps 734 mmHg 27%
    14:00 +34°C° 0 mm 1 mps 733 mmHg 27%
    15:00 +34°C° 0 mm 1 mps 733 mmHg 26%
    16:00 +34°C° 0 mm 1 mps 733 mmHg 27%
    17:00 +33°C° 0 mm 1 mps 732 mmHg 28%
    18:00 +32°C° 0 mm 1 mps 732 mmHg 29%
    19:00 +31°C° 0 mm 1 mps 733 mmHg 31%
    20:00 +30°C° 0 mm 1 mps 733 mmHg 32%
    21:00 +29°C° 0 mm 1 mps 733 mmHg 34%
    22:00 +28°C° 0 mm 2 mps 733 mmHg 35%
    23:00 +27°C° 0 mm 2 mps 733 mmHg 37%

    Tomorrow, 21 September, Friday

    Time Temperature Precipitation Wind Pressure Humidity
    00:00 +26°C° 0 mm 2 mps 733 mmHg 39%
    01:00 +25°C° 0 mm 2 mps 733 mmHg 40%
    02:00 +25°C° 0 mm 1 mps 733 mmHg 41%
    03:00 +24°C° 0 mm 1 mps 733 mmHg 42%
    04:00 +24°C° 0 mm 1 mps 733 mmHg 43%
    05:00 +23°C° 0 mm 1 mps 733 mmHg 44%
    06:00 +23°C° 0 mm 1 mps 733 mmHg 45%
    07:00 +25°C° 0 mm 1 mps 733 mmHg 40%
    08:00 +26°C° 0 mm 1 mps 734 mmHg 36%
    09:00 +28°C° 0 mm 1 mps 734 mmHg 32%
    10:00 +30°C° 0 mm 1 mps 734 mmHg 29%
    11:00 +32°C° 0 mm 1 mps 734 mmHg 26%
    12:00 +34°C° 0 mm 1 mps 734 mmHg 23%
    13:00 +35°C° 0 mm 1 mps 734 mmHg 22%
    14:00 +35°C° 0 mm 1 mps 733 mmHg 22%
    15:00 +36°C° 0 mm 1 mps 733 mmHg 21%
    16:00 +35°C° 0 mm 1 mps 733 mmHg 22%
    17:00 +34°C° 0 mm 1 mps 733 mmHg 23%
    18:00 +33°C° 0 mm 1 mps 733 mmHg 24%
    19:00 +32°C° 0 mm 1 mps 733 mmHg 26%
    20:00 +30°C° 0 mm 1 mps 734 mmHg 27%
    21:00 +29°C° 0 mm 2 mps 734 mmHg 29%
    22:00 +28°C° 0 mm 1 mps 734 mmHg 30%
    23:00 +27°C° 0 mm 1 mps 734 mmHg 31%

    Day after tomorrow, 22 September, Saturday

    Time Temperature Precipitation Wind Pressure Humidity
    00:00 +27°C° 0 mm 1 mps 734 mmHg 32%
    01:00 +26°C° 0 mm 1 mps 734 mmHg 32%
    02:00 +26°C° 0 mm 1 mps 734 mmHg 32%
    03:00 +25°C° 0 mm 1 mps 734 mmHg 32%
    04:00 +25°C° 0 mm 1 mps 734 mmHg 33%
    05:00 +25°C° 0 mm 1 mps 734 mmHg 34%
    06:00 +25°C° 0 mm 1 mps 734 mmHg 35%
    07:00 +27°C° 0 mm 1 mps 735 mmHg 32%
    08:00 +29°C° 0 mm 1 mps 735 mmHg 29%
    09:00 +31°C° 0 mm 2 mps 736 mmHg 26%
    10:00 +34°C° 0 mm 2 mps 736 mmHg 24%
    11:00 +34°C° 0 mm 1 mps 736 mmHg 22%
    12:00 +36°C° 0 mm 1 mps 736 mmHg 20%
    13:00 +37°C° 0 mm 1 mps 735 mmHg 19%
    14:00 +37°C° 0 mm 1 mps 735 mmHg 18%
    15:00 +37°C° 0 mm 1 mps 735 mmHg 17%
    16:00 +36°C° 0 mm 1 mps 735 mmHg 18%
    17:00 +35°C° 0 mm 1 mps 734 mmHg 20%
    18:00 +34°C° 0 mm 1 mps 734 mmHg 21%
    19:00 +33°C° 0 mm 1 mps 735 mmHg 22%
    20:00 +31°C° 0 mm 1 mps 735 mmHg 24%
    21:00 +30°C° 0 mm 2 mps 736 mmHg 26%
    22:00 +29°C° 0 mm 1 mps 736 mmHg 27%
    23:00 +28°C° 0 mm 1 mps 735 mmHg 28%

    23 September, Sunday

    Time Temperature Precipitation Wind Pressure Humidity
    00:00 +28°C° 0 mm 1 mps 735 mmHg 29%
    01:00 +27°C° 0 mm 1 mps 735 mmHg 30%
    02:00 +27°C° 0 mm 1 mps 735 mmHg 31%
    03:00 +26°C° 0 mm 1 mps 735 mmHg 32%
    04:00 +26°C° 0 mm 1 mps 735 mmHg 33%
    05:00 +25°C° 0 mm 1 mps 735 mmHg 34%
    06:00 +25°C° 0 mm 1 mps 735 mmHg 35%
    07:00 +27°C° 0 mm 1 mps 735 mmHg 31%
    08:00 +29°C° 0 mm 1 mps 736 mmHg 28%
    09:00 +31°C° 0 mm 1 mps 736 mmHg 24%
    10:00 +33°C° 0 mm 1 mps 736 mmHg 22%
    11:00 +35°C° 0 mm 1 mps 736 mmHg 20%
    12:00 +37°C° 0 mm 2 mps 736 mmHg 18%
    13:00 +38°C° 0 mm 2 mps 735 mmHg 17%
    14:00 +38°C° 0 mm 2 mps 735 mmHg 17%
    15:00 +39°C° 0 mm 2 mps 734 mmHg 16%
    16:00 +38°C° 0 mm 2 mps 734 mmHg 17%
    17:00 +37°C° 0 mm 2 mps 734 mmHg 19%
    18:00 +35°C° 0 mm 2 mps 734 mmHg 20%
    19:00 +34°C° 0 mm 2 mps 734 mmHg 21%
    20:00 +32°C° 0 mm 1 mps 734 mmHg 23%
    21:00 +30°C° 0 mm 1 mps 735 mmHg 24%
    22:00 +30°C° 0 mm 1 mps 735 mmHg 25%
    23:00 +29°C° 0 mm 1 mps 735 mmHg 26%

    24 September, Monday

    Time Temperature Precipitation Wind Pressure Humidity
    00:00 +28°C° 0 mm 1 mps 735 mmHg 28%
    01:00 +27°C° 0 mm 1 mps 734 mmHg 28%
    02:00 +27°C° 0 mm 1 mps 734 mmHg 29%
    03:00 +26°C° 0 mm 1 mps 734 mmHg 30%
    04:00 +26°C° 0 mm 1 mps 734 mmHg 31%
    05:00 +25°C° 0 mm 1 mps 734 mmHg 32%
    06:00 +25°C° 0 mm 1 mps 734 mmHg 33%
    07:00 +27°C° 0 mm 1 mps 734 mmHg 29%
    08:00 +29°C° 0 mm 2 mps 735 mmHg 26%
    09:00 +31°C° 0 mm 2 mps 735 mmHg 22%
    10:00 +34°C° 0 mm 2 mps 735 mmHg 20%
    11:00 +36°C° 0 mm 2 mps 735 mmHg 18%
    12:00 +38°C° 0 mm 3 mps 735 mmHg 15%
    13:00 +38°C° 0 mm 2 mps 734 mmHg 15%
    14:00 +39°C° 0 mm 2 mps 734 mmHg 14%
    15:00 +39°C° 0 mm 2 mps 733 mmHg 13%
    16:00 +37°C° 0 mm 1 mps 733 mmHg 14%
    17:00 +35°C° 0 mm 1 mps 733 mmHg 16%
    18:00 +34°C° 0 mm 1 mps 733 mmHg 17%
    19:00 +33°C° 0 mm 1 mps 733 mmHg 18%
    20:00 +31°C° 0 mm 2 mps 733 mmHg 20%
    21:00 +30°C° 0 mm 2 mps 733 mmHg 21%
    22:00 +29°C° 0 mm 2 mps 733 mmHg 24%
    23:00 +28°C° 0 mm 2 mps 733 mmHg 26%

    25 September, Tuesday

    Time Temperature Precipitation Wind Pressure Humidity
    00:00 +27°C° 0 mm 1 mps 733 mmHg 29%
    01:00 +26°C° 0 mm 1 mps 733 mmHg 31%
    02:00 +26°C° 0 mm 1 mps 733 mmHg 33%
    03:00 +25°C° 0 mm 1 mps 733 mmHg 35%
    04:00 +25°C° 0 mm 1 mps 733 mmHg 36%
    05:00 +24°C° 0 mm 1 mps 733 mmHg 38%
    06:00 +24°C° 0 mm 1 mps 733 mmHg 39%
    07:00 +26°C° 0 mm 1 mps 734 mmHg 35%
    08:00 +28°C° 0 mm 1 mps 734 mmHg 32%
    09:00 +30°C° 0 mm 1 mps 735 mmHg 28%
    10:00 +32°C° 0 mm 1 mps 735 mmHg 25%
    11:00 +34°C° 0 mm 1 mps 735 mmHg 22%
    12:00 +35°C° 0 mm 1 mps 735 mmHg 19%
    13:00 +36°C° 0 mm 1 mps 734 mmHg 18%
    14:00 +36°C° 0 mm 1 mps 734 mmHg 17%
    15:00 +37°C° 0 mm 1 mps 733 mmHg 16%
    16:00 +36°C° 0 mm 1 mps 733 mmHg 17%
    17:00 +35°C° 0 mm 1 mps 733 mmHg 19%
    18:00 +33°C° 0 mm 1 mps 733 mmHg 20%
    19:00 +32°C° 0 mm 2 mps 734 mmHg 24%
    20:00 +30°C° 0 mm 2 mps 734 mmHg 27%
    21:00 +29°C° 0 mm 2 mps 735 mmHg 30%
    22:00 +28°C° 0 mm 2 mps 735 mmHg 36%
    23:00 +27°C° 0 mm 2 mps 735 mmHg 41%
    Show more